Location: Ecklingerode
(51.5036°N, 10.3122°E)
Time: 07:06:05
(UTC+00:00)

PSLV R/B - Pass Details

Date: 29 October 2020
Orbit: 567 x 599 km, 98.2° (Epoch: 01 December)

Event Time Altitude Azimuth Distance (km) Brightness Sun altitude
Rises 17:32:19 0° 16° (NNE) 2,846 7.3 -15.4°
Reaches altitude 10° 17:34:31 10° 20° (NNE) 1,935 6.4 -15.7°
Maximum altitude 17:38:42 66° 102° (ESE) 647 3.9 -16.4°
Drops below altitude 10° 17:42:48 10° 186° (S) 1,900 6.6 -17.0°
Sets 17:44:57 0° 189° (S) 2,789 7.5 -17.3°
